Change the Weather History Date:

Saturday, February 25, 2012

  Actual Average Record
Temperature  
Mean Temperature 19 °F -  
Max Temperature 28 °F - - ()
Min Temperature 10 °F - - ()
Degree Days  
Heating Degree Days 46    
Moisture  
Dew Point 12 °F    
Average Humidity 73    
Maximum Humidity 86    
Minimum Humidity 55    
Precipitation  
Precipitation 0.00 in - - ()
Sea Level Pressure  
Sea Level Pressure 30.13 in    
Wind  
Wind Speed 5 mph (West)    
Max Wind Speed 9 mph    
Max Gust Speed -    
Visibility 9 miles    
Events Snow    
T = Trace of Precipitation, MM = Missing Value Source: NWS Daily Summary

Daily Weather History Graph

Daily Weather History Graph

Search for Another Location

Airport or City:

Trip Planner

Search our weather history database for the weather conditions in past years. The results will help you decide how hot, cold, wet, or windy it might be!

Date:

Astronomy

Feb. 25, 2012 Rise Set
Actual Time 6:56 AM CST 5:49 PM CST
Civil Twilight 6:25 AM CST 6:19 PM CST
Nautical Twilight 5:51 AM CST 6:54 PM CST
Astronomical Twilight 5:17 AM CST 7:29 PM CST
Moon 8:05 AM CST (2/25) 10:08 PM CST (2/25)
Length of Visible Light 11h 53m
Length of Day
10h 53m
Waxing Crescent, 14% of the Moon is Illuminated
Feb 25
Waxing Crescent
Feb 29
First Quarter
Mar 8
Full
Mar 14
Last Quarter
Mar 22
New

Hourly Weather History & Observations

Time (CST) Temp. Windchill Dew Point Humidity Pressure Visibility Wind Dir Wind Speed Gust Speed Precip Events Conditions
12:15 AM 12.2 °F 1.7 °F 5.0 °F 73% 30.02 in 10.0 mi NW 6.9 mph - N/A   Clear
12:35 AM 10.4 °F -2.4 °F 5.0 °F 79% 30.03 in 10.0 mi NW 9.2 mph - N/A   Clear
12:55 AM 10.4 °F 0.8 °F 5.0 °F 79% 30.04 in 10.0 mi NW 5.8 mph - N/A   Clear
1:15 AM 10.4 °F -0.4 °F 5.0 °F 79% 30.04 in 10.0 mi WNW 6.9 mph - N/A   Clear
1:35 AM 10.4 °F -0.4 °F 5.0 °F 79% 30.04 in 10.0 mi NW 6.9 mph - N/A   Clear
1:55 AM 10.4 °F -0.4 °F 5.0 °F 79% 30.05 in 10.0 mi WNW 6.9 mph - N/A   Clear
2:15 AM 10.4 °F 0.8 °F 5.0 °F 79% 30.05 in 10.0 mi WNW 5.8 mph - N/A   Clear
3:15 AM 10.4 °F 4.0 °F 5.0 °F 79% 30.06 in 10.0 mi WNW 3.5 mph - N/A Snow Light Snow
3:35 AM 10.4 °F 2.2 °F 5.0 °F 79% 30.06 in 10.0 mi WNW 4.6 mph - N/A   Mostly Cloudy
3:55 AM 10.4 °F 2.2 °F 5.0 °F 79% 30.06 in 10.0 mi NW 4.6 mph - N/A   Overcast
4:15 AM 10.4 °F 2.2 °F 6.8 °F 85% 30.07 in 10.0 mi NW 4.6 mph - N/A   Overcast
4:35 AM 10.4 °F 0.8 °F 6.8 °F 85% 30.08 in 10.0 mi WNW 5.8 mph - N/A   Overcast
5:15 AM 12.2 °F 2.9 °F 8.6 °F 85% 30.09 in 10.0 mi WNW 5.8 mph - N/A   Overcast
5:35 AM 12.2 °F 1.7 °F 8.6 °F 85% 30.10 in 10.0 mi WNW 6.9 mph - N/A   Overcast
5:55 AM 14.0 °F 3.9 °F 8.6 °F 79% 30.10 in 10.0 mi NW 6.9 mph - N/A   Overcast
6:15 AM 14.0 °F 5.1 °F 10.4 °F 86% 30.12 in 10.0 mi NW 5.8 mph - N/A Snow Light Snow
6:35 AM 14.0 °F 5.1 °F 10.4 °F 86% 30.12 in 10.0 mi WNW 5.8 mph - N/A Snow Light Snow
6:55 AM 14.0 °F 5.1 °F 10.4 °F 86% 30.13 in 10.0 mi WNW 5.8 mph - N/A Snow Light Snow
7:15 AM 14.0 °F 8.2 °F 10.4 °F 86% 30.13 in 7.0 mi West 3.5 mph - N/A Snow Light Snow
7:35 AM 14.0 °F 8.2 °F 10.4 °F 86% 30.14 in 7.0 mi WNW 3.5 mph - N/A Snow Light Snow
7:55 AM 15.8 °F 10.2 °F 12.2 °F 86% 30.14 in 4.0 mi NW 3.5 mph - N/A Snow Light Snow
8:15 AM 15.8 °F 8.6 °F 12.2 °F 86% 30.15 in 4.0 mi WNW 4.6 mph - N/A Snow Light Snow
8:35 AM 15.8 °F 6.1 °F 12.2 °F 86% 30.16 in 5.0 mi NNW 6.9 mph - N/A Snow Light Snow
8:55 AM 17.6 °F 10.7 °F 12.2 °F 79% 30.17 in 3.0 mi NW 4.6 mph - N/A Snow Light Snow
9:15 AM 17.6 °F 8.2 °F 12.2 °F 79% 30.17 in 5.0 mi North 6.9 mph - N/A Snow Light Snow
9:55 AM 17.6 °F 12.3 °F 12.2 °F 79% 30.19 in 4.0 mi NNW 3.5 mph - N/A Snow Light Snow
10:35 AM 19.4 °F 12.8 °F 12.2 °F 74% 30.19 in 7.0 mi North 4.6 mph - N/A Snow Light Snow
10:55 AM 19.4 °F 14.3 °F 12.2 °F 74% 30.19 in 7.0 mi NW 3.5 mph - N/A Snow Light Snow
11:15 AM 19.4 °F 11.5 °F 12.2 °F 74% 30.20 in 10.0 mi WNW 5.8 mph - N/A Snow Light Snow
11:35 AM 19.4 °F 11.5 °F 14.0 °F 80% 30.20 in 10.0 mi WNW 5.8 mph - N/A Snow Light Snow
11:55 AM 19.4 °F 9.5 °F 14.0 °F 80% 30.20 in 10.0 mi West 8.1 mph - N/A Snow Light Snow
12:35 PM 21.2 °F - 12.2 °F 68% 30.19 in 10.0 mi Calm Calm - N/A   Overcast
12:55 PM 21.2 °F - 12.2 °F 68% 30.18 in 10.0 mi Calm Calm - N/A   Mostly Cloudy
1:15 PM 23.0 °F - 14.0 °F 68% 30.17 in 10.0 mi Calm Calm - N/A   Scattered Clouds
1:35 PM 24.8 °F 17.9 °F 14.0 °F 64% 30.16 in 10.0 mi SW 5.8 mph - N/A   Clear
1:55 PM 26.6 °F 22.6 °F 14.0 °F 59% 30.15 in 10.0 mi WNW 3.5 mph - N/A   Clear
2:35 PM 26.6 °F - 14.0 °F 59% 30.14 in 10.0 mi Calm Calm - N/A   Clear
2:55 PM 26.6 °F 21.2 °F 14.0 °F 59% 30.14 in 10.0 mi WSW 4.6 mph - N/A   Clear
3:15 PM 28.4 °F 24.6 °F 14.0 °F 55% 30.14 in 10.0 mi WSW 3.5 mph - N/A   Clear
3:35 PM 28.4 °F 22.2 °F 14.0 °F 55% 30.14 in 10.0 mi SW 5.8 mph - N/A   Clear
3:55 PM 26.6 °F 20.0 °F 14.0 °F 59% 30.13 in 10.0 mi SW 5.8 mph - N/A   Clear
4:15 PM 28.4 °F 23.3 °F 14.0 °F 55% 30.13 in 10.0 mi SSW 4.6 mph - N/A   Clear
4:35 PM 28.4 °F 23.3 °F 14.0 °F 55% 30.12 in 10.0 mi West 4.6 mph - N/A   Clear
4:55 PM 26.6 °F 22.6 °F 14.0 °F 59% 30.12 in 10.0 mi SSE 3.5 mph - N/A   Clear
5:15 PM 26.6 °F - 14.0 °F 59% 30.12 in 10.0 mi Calm Calm - N/A   Clear
5:35 PM 26.6 °F - 14.0 °F 59% 30.12 in 10.0 mi Calm Calm - N/A   Clear
5:55 PM 24.8 °F 17.9 °F 14.0 °F 64% 30.13 in 10.0 mi South 5.8 mph - N/A   Clear
6:15 PM 24.8 °F 19.1 °F 14.0 °F 64% 30.14 in 10.0 mi SSW 4.6 mph - N/A   Clear
6:35 PM 23.0 °F 18.4 °F 14.0 °F 68% 30.14 in 10.0 mi South 3.5 mph - N/A   Clear
6:55 PM 23.0 °F - 14.0 °F 68% 30.14 in 10.0 mi Calm Calm - N/A   Clear
7:15 PM 23.0 °F 18.4 °F 14.0 °F 68% 30.14 in 10.0 mi South 3.5 mph - N/A   Clear
7:35 PM 21.2 °F 16.4 °F 14.0 °F 74% 30.14 in 10.0 mi South 3.5 mph - N/A   Clear
7:55 PM 23.0 °F 18.4 °F 14.0 °F 68% 30.13 in 10.0 mi SSE 3.5 mph - N/A   Clear
8:15 PM 23.0 °F 18.4 °F 14.0 °F 68% 30.13 in 10.0 mi SSE 3.5 mph - N/A   Clear
8:55 PM 23.0 °F 18.4 °F 14.0 °F 68% 30.13 in 10.0 mi SE 3.5 mph - N/A   Scattered Clouds
9:15 PM 23.0 °F 18.4 °F 14.0 °F 68% 30.14 in 10.0 mi SSE 3.5 mph - N/A   Scattered Clouds
9:35 PM 23.0 °F 18.4 °F 15.8 °F 74% 30.16 in 10.0 mi South 3.5 mph - N/A   Scattered Clouds
9:55 PM 23.0 °F - 15.8 °F 74% 30.17 in 10.0 mi Calm Calm - N/A   Scattered Clouds
10:15 PM 23.0 °F - 15.8 °F 74% 30.17 in 10.0 mi Calm Calm - N/A   Scattered Clouds
10:35 PM 23.0 °F 17.0 °F 14.0 °F 68% 30.15 in 10.0 mi SE 4.6 mph - N/A   Scattered Clouds
10:55 PM 23.0 °F 18.4 °F 15.8 °F 74% 30.14 in 10.0 mi SSE 3.5 mph - N/A   Scattered Clouds
11:15 PM 23.0 °F 17.0 °F 15.8 °F 74% 30.12 in 10.0 mi SE 4.6 mph - N/A   Scattered Clouds
11:35 PM 23.0 °F 13.9 °F 15.8 °F 74% 30.10 in 10.0 mi SE 8.1 mph - N/A   Scattered Clouds
11:55 PM 23.0 °F 17.0 °F 15.8 °F 74% 30.08 in 10.0 mi SE 4.6 mph - N/A   Scattered Clouds